Skip Navigation Links weather.gov 
NOAA logo-Select to go to the NOAA homepage NDBC Title GraphicClick to go to NDBC home page   Select to go to the NWS homepage
Home About Us Contact Us
 
 
    
    Station List

 Data Access
    Mobile Access
    Classic Maps
         Recent
         DART®
    Obs Search
    Ship Obs Report
    BuoyCAMs
    TAO
    DODS
    OceanSITES
    HF Radar
    OSMC
    Dial-A-Buoy
    RSS Feeds Image indicating link to RSS feed access page
    Web Widget
    Email Access
    Web Data Guide
    Maintenance Schedule
    Station Status Report

 Program Info
    TAO
    DART®
    IOOS®

 Publications
    NDBC PEA
    NDBC FONSI
    NDBC DQC Handbook

 FAQ
 Visitor Information
 
USA.gov is the U.S. government's official web portal to all federal, state and local government web resources and services.

Station SLXA2 - Salmon Landing, AK Image indicating link to RSS feed of recent meteorological observations for station SLXA2

Owned and maintained by Marine Exchange of Alaska
C-MAN Station
55.340 N 131.644 W (55°20'22" N 131°38'39" W)

Site elevation: 6.7 m above mean sea level
Air temp height: 18 m above site elevation
Anemometer height: 18 m above site elevation
Barometer elevation: 24.1 m above mean sea level

Search And Rescue (SAR) Data

Meteorological Observations from Nearby Stations and Ships Image indicating link to RSS feed of recent meteorological observations near station SLXA2

Large icon indicates selected station.
yellow diamond Stations with recent data
red diamond Stations with no data in last 8 hours
     (24 hours for tsunami stations)


Conditions at SLXA2 as of
(3:43 pm AKST on 12/18/2018)
0043 GMT on 12/19/2018:
     

Click on the graph icon in the table below to see a time series plot of the last five days of that observation.

5-day plot - Wind Direction Wind Direction (WDIR): E ( 80 deg true )
5-day plot - Wind Speed Wind Speed (WSPD): 23 kts
5-day plot - Wind Gust Wind Gust (GST): 30 kts
5-day plot - Atmospheric Pressure Atmospheric Pressure (PRES): 29.19 in
5-day plot - Air Temperature Air Temperature (ATMP): 44.6 °F
5-day plot - Dew Point Dew Point (DEWP): 38.5 °F
5-day plot - Wind Chill Wind Chill (CHILL): 35.2 °F
5-day plot - Wind Speed at 10 Meters Wind Speed at 10 meters (WSPD10M): 21 kts
5-day plot - Wind Speed at 10 Meters Wind Speed at 20 meters (WSPD20M): 23 kts
5-day plot - Wind Speed, Wind Gust and Atmospheric Pressure Combined plot of Wind Speed, Gust, and Air Pressure
Previous observations
5-day plot - Wind Direction 5-day plot - Wind Speed 5-day plot - Wind Gust 5-day plot - Wave Height 5-day plot - Dominant Wave Period 5-day plot - Average Period 5-day plot - Mean Wave Direction 5-day plot - Atmospheric Pressure 5-day plot - Pressure Tendency 5-day plot - Air Temperature 5-day plot - Water Temperature 5-day plot - Dew Point 5-day plot - Salinity 5-day plot - Visibility 5-day plot - Tide (above MLLW)
MM DD TIME
(AKST)
WDIR WSPD
kts
GST
kts
WVHT
ft
DPD
sec
APD
sec
MWD PRES
in
PTDY
in
ATMP
°F
WTMP
°F
DEWP
°F
SAL
psu
VIS
nmi
TIDE
ft
1218 3:33 pm E 24 31----29.18- 44.2- 38.3---
1218 3:23 pm E 25 37----29.18- 44.1- 38.3---
1218 3:13 pm E 26 35----29.18- 44.1- 38.3---
1218 2:53 pm E 26 35----29.17- 43.5- 37.9---
1218 2:43 pm E 27 38----29.17- 43.0- 37.9---
1218 2:23 pm E 24 37----29.16- 42.1- 37.9---
1218 2:13 pm E 24 35----29.16- 41.4- 37.8---
1218 2:03 pm E 27 39----29.15- 42.8- 37.6---
1218 1:53 pm E 27 36----29.15- 44.1- 37.9---
1218 1:43 pm E 26 38----29.15- 44.1- 38.1---
1218 1:33 pm E 26 34----29.14- 44.1- 38.3---
1218 1:23 pm E 23 32----29.14- 44.4- 38.8---
1218 1:13 pm E 23 33----29.14- 45.1- 39.0---
1218 1:03 pmESE 24 32----29.13- 45.3- 39.2---
121812:53 pmESE 19 26----29.13- 46.2- 38.8---
121812:43 pmESE 20 32----29.12- 46.6- 38.7---
121812:33 pm SE 24 36----29.13- 46.8- 39.0---
121812:23 pmESE 20 35----29.12- 46.2- 38.8---
121812:13 pmESE 20 30----29.13- 45.1- 38.8---
121812:03 pm E 20 29----29.12- 44.8- 39.0---
121811:53 am E 19 28----29.12- 45.1- 39.0---
121811:43 am E 21 31----29.11- 45.3- 38.8---
121811:33 amESE 16 27----29.11- 45.1- 39.6---
121811:23 am E 22 32----29.10- 45.9- 39.0---
121811:13 amESE 15 23----29.10- 46.0- 39.2---
121811:03 am E 16 24----29.09- 46.2- 39.0---
121810:53 am E 18 27----29.09- 45.5- 39.0---
121810:43 am E 21 26----29.09- 45.3- 39.0---
121810:33 am E 26 34----29.08- 45.0- 39.0---
121810:23 am E 28 35----29.07- 44.8- 39.0---
121810:13 am E 30 39----29.07- 45.0- 39.0---
121810:03 am E 23 31----29.07- 44.8- 39.2---
1218 9:53 am E 20 30----29.07- 44.2- 39.6---
1218 9:43 amESE 15 25----29.07- 44.6- 39.4---
1218 9:33 am E 23 36----29.05- 44.6- 39.0---
1218 9:23 am E 28 38----29.04- 44.6- 39.2---
1218 9:13 am E 21 31----29.05- 44.4- 39.6---
1218 9:03 am E 19 25----29.05- 44.8- 39.6---
1218 8:53 am E 24 33----29.04- 45.1- 39.6---
1218 8:43 am E 23 29----29.04- 45.0- 39.7---
1218 8:33 am E 21 28----29.04- 45.3- 39.6---
1218 8:23 amESE 17 27----29.03- 45.3- 39.6---
1218 8:13 am E 18 26----29.03- 45.3- 39.7---
1218 8:03 am E 17 29----29.03- 45.5- 39.7---
1218 7:53 amESE 21 40----29.03- 45.9- 39.6---
1218 7:43 am E 20 38----29.02- 45.5- 39.9---
1218 7:33 am E 21 33----29.01- 46.0- 39.9---
1218 7:23 amESE 19 30----29.01- 45.7- 40.3---
1218 7:13 amESE 18 26----29.01- 45.7- 40.3---
1218 7:03 amESE 20 28----29.00- 46.0- 40.5---
1218 6:53 am SE 19 26----29.00- 46.0- 41.4---
1218 6:43 am SE 17 25----29.00- 46.2- 43.2---
1218 6:33 amESE 17 25----28.99- 46.4- 44.2---
1218 6:23 amESE 18 28----28.98- 46.4- 44.8---
1218 6:13 amESE 22 29----28.98- 45.9- 44.6---
1218 6:03 amESE 19 30----28.97- 45.5- 44.2---
1218 5:53 amESE 20 29----28.98- 45.9- 44.4---
1218 5:43 amESE 20 30----29.13- 45.5- 44.1---
1218 5:33 amESE 20 39----29.16- 45.0- 43.7---
1218 5:23 amESE 25 41----29.11- 44.1- 42.8---
1218 5:13 am E 24 40----29.06- 43.0- 41.9---
1218 5:03 am E 25 45----29.04- 42.6- 41.7---
1218 4:53 am E 22 40----28.99- 41.9- 41.0---
1218 4:43 am E 21 41----28.98- 41.7- 40.8---
1218 4:33 am E 27 44----28.97- 41.5- 40.6---
1218 4:23 am E 25 41----28.97- 41.5- 40.6---
1218 4:13 am E 31 47----28.96- 41.4- 40.5---
1218 4:03 am E 31 52----28.96- 41.4- 40.5---
1218 3:53 am E 36 57----28.95- 41.4- 40.5---
1218 3:43 am E 35 53----28.95- 41.4- 40.5---
1218 3:33 am E 39 61----28.96- 41.4- 40.5---
1218 3:23 am E 36 57----28.97- 41.4- 40.5---
1218 3:13 am E 36 52----28.97- 41.4- 40.6---
1218 3:03 am E 35 52----28.96- 41.4- 40.6---
1218 2:53 am E 32 53----28.93- 41.2- 40.5---
1218 2:43 am E 33 51----28.91- 40.6- 39.9---
1218 2:33 am E 34 49----28.88- 40.1- 39.4---
1218 2:23 amENE 36 60----28.86- 39.9- 39.2---
1218 2:13 amENE 36 52----28.84- 39.6- 38.8---
1218 2:03 am E 37 55----28.83- 39.4- 38.7---
1218 1:53 am E 40 69----28.83- 39.4- 38.7---
1218 1:43 am E 36 54----28.82- 39.2- 38.5---
1218 1:33 amENE 39 59----28.81- 39.2- 38.5---
1218 1:23 amENE 38 65----28.80- 39.0- 38.1---
1218 1:13 amENE 40 55----28.79- 38.8- 37.9---
1218 1:03 am E 36 54----28.79- 39.0- 37.9---
121812:53 am E 35 51----28.80- 39.0- 37.8---
121812:43 amENE 37 61----28.80- 39.0- 37.8---
121812:33 am E 41 72----28.80- 39.2- 37.8---
121812:23 amENE 34 50----28.80- 39.2- 37.6---
121812:13 am E 36 55----28.80- 39.4- 37.8---
121812:03 am E 35 51----28.82- 39.6- 37.9---
121711:53 pm E 33 58----28.81- 39.4- 37.8---
121711:43 pm E 31 49----28.81- 39.4- 37.8---
121711:33 pm E 30 43----28.80- 39.4- 37.6---
121711:23 pmENE 26 43----28.78- 39.0- 37.4---
121711:13 pmENE 24 35----28.77- 39.0- 37.2---
121711:03 pmENE 22 37----28.76- 38.7- 36.9---
121710:53 pm E 24 35----28.78- 39.0- 37.2---
121710:43 pm E 26 38----28.80- 39.4- 37.4---
121710:33 pm E 30 48----28.83- 39.7- 37.6---
121710:23 pm E 33 52----28.84- 39.7- 37.6---
121710:13 pm E 29 56----28.84- 40.1- 37.6---
121710:03 pm E 30 53----28.90- 40.6- 37.9---
1217 9:53 pm E 30 52----28.95- 41.2- 38.7---
1217 9:43 pmENE 25 40----28.89- 40.6- 38.3---
1217 9:33 pm E 23 44----28.85- 39.9- 37.9---
1217 9:23 pmENE 21 37----28.84- 40.1- 37.9---
1217 9:13 pm E 25 47----28.85- 39.9- 37.6---
1217 9:03 pmENE 29 45----28.87- 40.1- 37.6---
1217 8:53 pm E 27 49----28.92- 41.0- 38.1---
1217 8:43 pmENE 26 43----28.94- 41.4- 36.7---
1217 8:33 pmENE 25 47----28.94- 42.8- 36.1---
1217 8:23 pmENE 21 41----28.94- 44.1- 36.5---
1217 8:13 pmENE 24 49----28.95- 43.3- 37.9---
1217 8:03 pmENE 25 40----28.96- 42.3- 39.7---
1217 7:53 pmENE 20 39----29.02- 40.6- 38.3---
1217 7:43 pmENE 21 33----29.02- 40.6- 38.3---
1217 7:33 pm E 26 47----29.00- 40.6- 38.5---
1217 7:23 pm E 23 40----28.97- 40.1- 38.1---
1217 7:13 pm E 26 38----28.95- 39.9- 37.9---
1217 7:03 pm E 27 40----28.93- 39.7- 37.8---
1217 6:53 pmENE 25 50----28.94- 39.7- 37.8---
1217 6:43 pmENE 19 33----28.91- 39.6- 37.6---
1217 6:33 pmENE 22 33----28.91- 39.4- 37.4---
1217 6:23 pmENE 25 39----28.91- 39.6- 37.4---
1217 6:13 pmENE 25 37----28.91- 39.4- 37.4---
1217 6:03 pmENE 23 36----28.92- 39.7- 37.6---
1217 5:53 pmENE 27 50----28.92- 39.6- 37.4---
1217 5:43 pmENE 22 35----28.92- 39.7- 37.6---
1217 5:33 pmENE 24 41----28.92- 39.4- 37.2---
1217 5:23 pmENE 31 52----28.95- 39.7- 37.2---
1217 5:13 pmENE 28 52----28.97- 40.3- 37.4---
1217 5:03 pmENE 25 41----28.97- 41.0- 36.9---
1217 4:53 pmENE 23 37----28.97- 43.0- 36.3---
1217 4:43 pmENE 22 40----28.97- 43.3- 36.0---
1217 4:33 pmENE 19 32----28.98- 43.0- 35.6---
1217 4:23 pmENE 22 38----28.99- 42.1- 35.1---
1217 4:13 pmENE 20 35----29.00- 42.4- 36.1---
1217 4:03 pmENE 19 40----29.01- 42.3- 36.9---
1217 3:53 pmENE 20 34----29.02- 41.4- 38.1---

Description of Measurements

Links which are specific to this station are listed below:

Real Time Data in tabular form for the last forty-five days.

Historical Data & Climatic Summaries for quality controlled data for the current month, previous months, and previous years.